Regional Weather Roundup
Issued by NWS

Home | Current Version | Previous Version | Text Only | Print | Product List | Glossary On
Versions: 1 2 3 4 5 6 7 8 9 10 11 12 13 14 15 16 17 18 19 20 21 22 23 24 25 26 27 28 29 30 31 32 33 34 35 36 37 38 39 40 41 42 43 44 45 46 47 48 49 50
000
ASUS43 KLMK 071710
RWRKY
KENTUCKY REGIONAL WEATHER ROUNDUP
NATIONAL WEATHER SERVICE LOUISVILLE KY
100 PM EDT TUE JUL 07 2015

NOTE "FAIR" INDICATES FEW OR NO CLOUDS BELOW 12,000 FEET
WITH NO SIGNIFICANT WEATHER AND/OR OBSTRUCTIONS TO VISIBILITY.

KYZ001>023-026-027-061>063-070>075-071800-
WESTERN AND SOUTH CENTRAL KENTUCKY

CITY           SKY/WX    TMP DP  RH WIND       PRES   REMARKS
PADUCAH        CLOUDY    82  74  76 SW14G22   29.98S
HENDERSON      CLOUDY    72  68  88 SW9G17    29.99S
OWENSBORO      LGT RAIN  81  73  76 W18G26    30.00R
HOPKINSVILLE   PTSUNNY   84  74  70 SW14      30.03R HX  91
BOWLING GREEN  CLOUDY    86  73  65 SW17      30.04S HX  93
GLASGOW        CLOUDY    83  72  70 SW12G20   30.05S
$$

KYZ024-025-028>034-038-045-046-053-071800-
NORTH CENTRAL KENTUCKY

CITY           SKY/WX    TMP DP  RH WIND       PRES   REMARKS
LOUISVILLE/SDF HVY RAIN  74  72  93 S10       30.00F VSB 3/4
LOUISVILLE/LOU HVY RAIN  74  72  93 S7        30.01S FOG
FORT KNOX      CLOUDY    75  73  94 S6        30.01S
$$

KYZ035>037-039>044-047>052-055>060-089>105-071800-
NORTHEAST KENTUCKY

CITY           SKY/WX    TMP DP  RH WIND       PRES   REMARKS
LEXINGTON      CLOUDY    78  69  73 SW14      30.04R
COVINGTON      LGT RAIN  77  72  84 S18G24    29.96F
FRANKFORT      LGT RAIN  76  69  79 SW14      30.02R
$$

KYZ054-064>069-076>088-106>120-071800-
SOUTHEAST KENTUCKY

CITY           SKY/WX    TMP DP  RH WIND       PRES   REMARKS
JACKSON        LGT RAIN  74  71  91 SW3       30.10R FOG
LONDON         PTSUNNY   84  67  56 SW12G18   30.10F
SOMERSET       CLOUDY    81  70  69 SW16G22   30.09F
MIDDLESBORO    MOSUNNY   83  71  66 S8        30.13F
MONTICELLO     PTSUNNY   85  75  71 SW14      30.11F HX  93
$$




USA.gov is the U.S. government's official web portal to all federal, state and local government web resources and services.